Time,TemperatureF,DewpointF,PressureIn,WindDirection,WindDirectionDegrees,WindSpeedMPH,WindSpeedGustMPH,Humidity,HourlyPrecipIn,Conditions,Clouds,dailyrainin,SoftwareType,DateUTC
2013-01-13 00:00:00,61.9,58.9,29.89,SSE,149,6.0,11.0,90,0.00,,,0.00,Wunderground v.1.15,2013-01-13 05:00:00,
2013-01-13 00:05:00,61.9,58.9,29.89,SE,143,7.0,11.0,90,0.00,,,0.00,Wunderground v.1.15,2013-01-13 05:05:00,
2013-01-13 00:10:00,61.8,58.8,29.88,South,177,6.0,6.0,90,0.00,,,0.00,Wunderground v.1.15,2013-01-13 05:10:00,
2013-01-13 00:15:00,61.8,58.8,29.88,South,172,5.0,6.0,90,0.00,,,0.00,Wunderground v.1.15,2013-01-13 05:15:00,
2013-01-13 00:20:00,61.8,58.8,29.87,South,169,5.0,7.0,90,0.00,,,0.00,Wunderground v.1.15,2013-01-13 05:20:00,
2013-01-13 00:30:00,61.8,58.8,29.87,SSE,166,6.0,9.0,90,0.00,,,0.00,Wunderground v.1.15,2013-01-13 05:30:00,
2013-01-13 00:35:00,61.7,58.7,29.87,SSW,205,6.0,9.0,90,0.00,,,0.00,Wunderground v.1.15,2013-01-13 05:35:00,
2013-01-13 00:45:00,61.6,58.6,29.87,SSW,193,5.0,5.0,90,0.00,,,0.00,Wunderground v.1.15,2013-01-13 05:45:00,
2013-01-13 00:50:00,61.5,58.5,29.87,SSW,196,5.0,5.0,90,0.00,,,0.00,Wunderground v.1.15,2013-01-13 05:50:00,
2013-01-13 00:55:00,61.5,58.5,29.86,SSW,197,5.0,5.0,90,0.00,,,0.00,Wunderground v.1.15,2013-01-13 05:55:00,
2013-01-13 01:00:00,61.3,58.3,29.86,South,180,5.0,7.0,90,0.00,,,0.00,Wunderground v.1.15,2013-01-13 06:00:00,
2013-01-13 01:10:00,61.4,58.7,29.86,SE,133,5.0,7.0,91,0.00,,,0.00,Wunderground v.1.15,2013-01-13 06:10:00,
2013-01-13 01:20:00,61.3,58.3,29.86,SSW,198,5.0,5.0,90,0.00,,,0.00,Wunderground v.1.15,2013-01-13 06:20:00,
2013-01-13 01:30:00,61.3,58.7,29.85,South,177,5.0,5.0,91,0.00,,,0.00,Wunderground v.1.15,2013-01-13 06:30:00,
2013-01-13 01:35:00,61.4,58.4,29.85,SSW,193,5.0,6.0,90,0.00,,,0.00,Wunderground v.1.15,2013-01-13 06:35:00,
2013-01-13 01:40:00,61.3,58.7,29.85,SSW,193,5.0,5.0,91,0.00,,,0.00,Wunderground v.1.15,2013-01-13 06:40:00,
2013-01-13 01:50:00,61.4,58.4,29.85,South,172,5.0,5.0,90,0.00,,,0.00,Wunderground v.1.15,2013-01-13 06:50:00,
2013-01-13 01:55:00,61.4,58.4,29.85,South,190,5.0,5.0,90,0.00,,,0.00,Wunderground v.1.15,2013-01-13 06:55:00,
2013-01-13 02:00:00,61.5,58.8,29.85,SSW,207,4.0,4.0,91,0.00,,,0.00,Wunderground v.1.15,2013-01-13 07:00:00,
2013-01-13 02:10:00,61.8,58.8,29.85,South,180,5.0,5.0,90,0.00,,,0.00,Wunderground v.1.15,2013-01-13 07:10:00,
2013-01-13 02:15:00,61.9,58.9,29.85,SSW,199,6.0,7.0,90,0.00,,,0.00,Wunderground v.1.15,2013-01-13 07:15:00,
2013-01-13 02:20:00,62.1,59.1,29.84,SSE,168,6.0,6.0,90,0.00,,,0.00,Wunderground v.1.15,2013-01-13 07:20:00,
2013-01-13 02:30:00,62.6,59.3,29.84,SSE,153,7.0,7.0,89,0.00,,,0.00,Wunderground v.1.15,2013-01-13 07:30:00,
2013-01-13 02:35:00,62.7,59.4,29.84,SSW,197,7.0,7.0,89,0.00,,,0.00,Wunderground v.1.15,2013-01-13 07:35:00,
2013-01-13 02:40:00,62.7,59.4,29.84,South,174,6.0,7.0,89,0.00,,,0.00,Wunderground v.1.15,2013-01-13 07:40:00,
2013-01-13 02:45:00,62.7,59.4,29.84,SSW,198,7.0,8.0,89,0.00,,,0.00,Wunderground v.1.15,2013-01-13 07:45:00,
2013-01-13 02:50:00,62.7,59.4,29.84,SSW,194,8.0,8.0,89,0.00,,,0.00,Wunderground v.1.15,2013-01-13 07:50:00,
2013-01-13 02:55:00,62.6,59.3,29.83,South,185,7.0,8.0,89,0.00,,,0.00,Wunderground v.1.15,2013-01-13 07:55:00,
2013-01-13 03:00:00,62.5,59.2,29.83,SSE,166,6.0,8.0,89,0.00,,,0.00,Wunderground v.1.15,2013-01-13 08:00:00,
2013-01-13 03:10:00,62.8,59.5,29.82,South,187,8.0,11.0,89,0.00,,,0.00,Wunderground v.1.15,2013-01-13 08:10:00,
2013-01-13 03:20:00,62.8,59.2,29.82,SSW,207,8.0,9.0,88,0.00,,,0.00,Wunderground v.1.15,2013-01-13 08:20:00,
2013-01-13 03:25:00,62.8,59.2,29.82,SSW,207,8.0,9.0,88,0.00,,,0.00,Wunderground v.1.15,2013-01-13 08:25:00,
2013-01-13 03:30:00,62.7,59.1,29.82,SW,214,8.0,8.0,88,0.00,,,0.00,Wunderground v.1.15,2013-01-13 08:30:00,
2013-01-13 03:40:00,62.8,59.2,29.80,SSE,167,9.0,11.0,88,0.00,,,0.00,Wunderground v.1.15,2013-01-13 08:40:00,
2013-01-13 03:45:00,62.9,59.3,29.80,South,186,9.0,17.0,88,0.00,,,0.00,Wunderground v.1.15,2013-01-13 08:45:00,
2013-01-13 03:50:00,63.1,59.2,29.81,South,177,9.0,14.0,87,0.00,,,0.00,Wunderground v.1.15,2013-01-13 08:50:00,
2013-01-13 03:55:00,63.0,59.1,29.80,SSW,193,9.0,14.0,87,0.00,,,0.00,Wunderground v.1.15,2013-01-13 08:55:00,
2013-01-13 04:00:00,63.0,59.1,29.81,South,181,10.0,10.0,87,0.00,,,0.00,Wunderground v.1.15,2013-01-13 09:00:00,
2013-01-13 04:10:00,62.9,59.0,29.81,South,180,9.0,9.0,87,0.00,,,0.00,Wunderground v.1.15,2013-01-13 09:10:00,
2013-01-13 04:15:00,62.9,59.0,29.81,SSW,197,8.0,11.0,87,0.00,,,0.00,Wunderground v.1.15,2013-01-13 09:15:00,
2013-01-13 04:20:00,63.0,59.1,29.81,SSW,193,9.0,9.0,87,0.00,,,0.00,Wunderground v.1.15,2013-01-13 09:20:00,
2013-01-13 04:25:00,63.0,59.1,29.80,South,187,9.0,9.0,87,0.00,,,0.00,Wunderground v.1.15,2013-01-13 09:25:00,
2013-01-13 04:30:00,63.0,59.1,29.80,SSE,158,9.0,10.0,87,0.00,,,0.00,Wunderground v.1.15,2013-01-13 09:30:00,
2013-01-13 04:40:00,62.9,59.0,29.80,SSW,197,9.0,10.0,87,0.00,,,0.00,Wunderground v.1.15,2013-01-13 09:40:00,
2013-01-13 04:45:00,62.9,59.0,29.80,South,169,9.0,11.0,87,0.00,,,0.00,Wunderground v.1.15,2013-01-13 09:45:00,
2013-01-13 04:50:00,62.9,59.0,29.80,SSW,212,9.0,13.0,87,0.00,,,0.00,Wunderground v.1.15,2013-01-13 09:50:00,
2013-01-13 05:00:00,63.2,58.9,29.80,SSW,194,11.0,11.0,86,0.00,,,0.00,Wunderground v.1.15,2013-01-13 10:00:00,
2013-01-13 05:10:00,63.5,58.9,29.80,South,190,11.0,14.0,85,0.00,,,0.00,Wunderground v.1.15,2013-01-13 10:10:00,
2013-01-13 05:15:00,63.6,59.0,29.80,SSW,200,12.0,14.0,85,0.00,,,0.00,Wunderground v.1.15,2013-01-13 10:15:00,
2013-01-13 05:25:00,63.7,58.8,29.80,South,181,12.0,21.0,84,0.00,,,0.00,Wunderground v.1.15,2013-01-13 10:25:00,
2013-01-13 05:30:00,63.8,58.9,29.80,SSW,194,13.0,13.0,84,0.00,,,0.00,Wunderground v.1.15,2013-01-13 10:30:00,
2013-01-13 05:35:00,63.9,58.6,29.79,SSW,197,12.0,14.0,83,0.00,,,0.00,Wunderground v.1.15,2013-01-13 10:35:00,
2013-01-13 05:40:00,63.9,58.6,29.78,South,174,12.0,20.0,83,0.00,,,0.00,Wunderground v.1.15,2013-01-13 10:40:00,
2013-01-13 05:45:00,64.0,58.7,29.78,SSW,200,12.0,20.0,83,0.00,,,0.00,Wunderground v.1.15,2013-01-13 10:45:00,
2013-01-13 05:50:00,64.0,58.7,29.79,SSW,201,12.0,12.0,83,0.00,,,0.00,Wunderground v.1.15,2013-01-13 10:50:00,
2013-01-13 06:00:00,64.0,58.7,29.79,SSW,193,12.0,19.0,83,0.00,,,0.00,Wunderground v.1.15,2013-01-13 11:00:00,
2013-01-13 06:10:00,64.0,58.4,29.80,SSW,196,11.0,17.0,82,0.00,,,0.00,Wunderground v.1.15,2013-01-13 11:10:00,
2013-01-13 06:15:00,64.0,58.4,29.80,SW,218,11.0,17.0,82,0.00,,,0.00,Wunderground v.1.15,2013-01-13 11:15:00,
2013-01-13 06:20:00,64.0,58.4,29.80,SSW,198,12.0,12.0,82,0.00,,,0.00,Wunderground v.1.15,2013-01-13 11:20:00,
2013-01-13 06:25:00,64.2,58.9,29.80,SSW,202,12.0,12.0,83,0.00,,,0.00,Wunderground v.1.15,2013-01-13 11:25:00,
2013-01-13 06:35:00,64.2,58.9,29.81,SSW,193,12.0,13.0,83,0.00,,,0.00,Wunderground v.1.15,2013-01-13 11:35:00,
2013-01-13 06:40:00,64.3,59.0,29.81,SSW,203,13.0,-999.0,83,0.00,,,0.00,Wunderground v.1.15,2013-01-13 11:40:00,
2013-01-13 06:45:00,64.2,58.9,29.81,SSW,203,12.0,-999.0,83,0.00,,,0.00,Wunderground v.1.15,2013-01-13 11:45:00,
2013-01-13 06:50:00,64.2,58.9,29.81,SSW,203,12.0,-999.0,83,0.00,,,0.00,Wunderground v.1.15,2013-01-13 11:50:00,
2013-01-13 06:55:00,64.1,58.8,29.82,SSW,203,11.0,-999.0,83,0.00,,,0.00,Wunderground v.1.15,2013-01-13 11:55:00,
2013-01-13 07:00:00,64.1,58.8,29.82,SSW,203,11.0,-999.0,83,0.00,,,0.00,Wunderground v.1.15,2013-01-13 12:00:00,
2013-01-13 07:05:00,64.2,58.9,29.82,SSW,203,13.0,-999.0,83,0.00,,,0.00,Wunderground v.1.15,2013-01-13 12:05:00,
2013-01-13 07:10:00,64.3,59.0,29.83,SSW,203,11.0,-999.0,83,0.00,,,0.00,Wunderground v.1.15,2013-01-13 12:10:00,
2013-01-13 07:15:00,64.3,59.0,29.83,SSW,203,10.0,-999.0,83,0.00,,,0.00,Wunderground v.1.15,2013-01-13 12:15:00,
2013-01-13 07:20:00,64.4,58.8,29.83,SSW,203,12.0,-999.0,82,0.00,,,0.00,Wunderground v.1.15,2013-01-13 12:20:00,
2013-01-13 07:25:00,64.6,59.0,29.84,SW,225,12.0,-999.0,82,0.00,,,0.00,Wunderground v.1.15,2013-01-13 12:25:00,
2013-01-13 07:30:00,64.7,58.7,29.84,SSW,203,13.0,-999.0,81,0.00,,,0.00,Wunderground v.1.15,2013-01-13 12:30:00,
2013-01-13 07:35:00,64.9,58.9,29.84,SSW,203,13.0,-999.0,81,0.00,,,0.00,Wunderground v.1.15,2013-01-13 12:35:00,
2013-01-13 07:40:00,65.0,59.0,29.84,SSW,203,15.0,-999.0,81,0.00,,,0.00,Wunderground v.1.15,2013-01-13 12:40:00,
2013-01-13 07:45:00,65.0,59.0,29.85,SSW,203,12.0,-999.0,81,0.00,,,0.00,Wunderground v.1.15,2013-01-13 12:45:00,
2013-01-13 07:50:00,64.8,58.8,29.86,SW,225,12.0,-999.0,81,0.00,,,0.00,Wunderground v.1.15,2013-01-13 12:50:00,
2013-01-13 07:55:00,64.6,59.0,29.86,SSW,203,11.0,-999.0,82,0.00,,,0.00,Wunderground v.1.15,2013-01-13 12:55:00,
2013-01-13 08:00:00,64.2,58.9,29.85,SSW,203,12.0,-999.0,83,0.00,,,0.00,Wunderground v.1.15,2013-01-13 13:00:00,
2013-01-13 08:05:00,63.9,59.0,29.86,SSW,203,10.0,-999.0,84,0.00,,,0.00,Wunderground v.1.15,2013-01-13 13:05:00,
2013-01-13 08:10:00,63.7,58.8,29.86,SW,225,9.0,-999.0,84,0.00,,,0.00,Wunderground v.1.15,2013-01-13 13:10:00,
2013-01-13 08:15:00,63.6,58.7,29.86,SSW,203,7.0,-999.0,84,0.00,,,0.00,Wunderground v.1.15,2013-01-13 13:15:00,
2013-01-13 08:20:00,63.5,58.6,29.87,SSW,203,8.0,-999.0,84,0.00,,,0.00,Wunderground v.1.15,2013-01-13 13:20:00,
2013-01-13 08:25:00,63.5,58.6,29.88,SSW,203,8.0,-999.0,84,0.00,,,0.00,Wunderground v.1.15,2013-01-13 13:25:00,
2013-01-13 08:30:00,63.4,58.5,29.88,SSW,203,8.0,-999.0,84,0.00,,,0.00,Wunderground v.1.15,2013-01-13 13:30:00,
2013-01-13 08:35:00,63.3,58.7,29.88,SSW,203,7.0,-999.0,85,0.00,,,0.00,Wunderground v.1.15,2013-01-13 13:35:00,
2013-01-13 08:45:00,63.0,58.4,29.88,SW,236,7.0,21.0,85,0.00,,,0.00,Wunderground v.1.15,2013-01-13 13:45:00,
2013-01-13 08:55:00,62.9,58.3,29.89,SSW,211,8.0,21.0,85,0.00,,,0.00,Wunderground v.1.15,2013-01-13 13:55:00,
2013-01-13 09:00:00,62.7,58.1,29.89,SSW,208,8.0,9.0,85,0.00,,,0.00,Wunderground v.1.15,2013-01-13 14:00:00,
2013-01-13 09:10:00,62.6,58.0,29.89,SW,215,8.0,11.0,85,0.00,,,0.00,Wunderground v.1.15,2013-01-13 14:10:00,
2013-01-13 09:15:00,62.6,58.0,29.89,SSW,198,10.0,13.0,85,0.00,,,0.00,Wunderground v.1.15,2013-01-13 14:15:00,
2013-01-13 09:20:00,62.5,57.9,29.89,SSW,202,11.0,11.0,85,0.00,,,0.00,Wunderground v.1.15,2013-01-13 14:20:00,
2013-01-13 09:30:00,62.2,58.0,29.89,SSW,208,9.0,9.0,86,0.00,,,0.00,Wunderground v.1.15,2013-01-13 14:30:00,
2013-01-13 09:35:00,62.1,57.9,29.90,SSW,211,9.0,10.0,86,0.00,,,0.00,Wunderground v.1.15,2013-01-13 14:35:00,
2013-01-13 09:45:00,61.9,58.0,29.89,SSW,205,10.0,12.0,87,0.00,,,0.00,Wunderground v.1.15,2013-01-13 14:45:00,
2013-01-13 09:50:00,61.8,57.9,29.89,SSW,211,9.0,10.0,87,0.00,,,0.00,Wunderground v.1.15,2013-01-13 14:50:00,
2013-01-13 09:55:00,61.7,57.8,29.89,South,181,9.0,10.0,87,0.00,,,0.00,Wunderground v.1.15,2013-01-13 14:55:00,
2013-01-13 10:00:00,61.8,57.9,29.89,SSW,197,10.0,11.0,87,0.00,,,0.00,Wunderground v.1.15,2013-01-13 15:00:00,
2013-01-13 10:10:00,61.9,58.0,29.89,South,187,11.0,11.0,87,0.00,,,0.00,Wunderground v.1.15,2013-01-13 15:10:00,
2013-01-13 10:15:00,62.0,57.8,29.88,SSW,201,10.0,12.0,86,0.00,,,0.00,Wunderground v.1.15,2013-01-13 15:15:00,
2013-01-13 10:20:00,62.1,57.9,29.89,SW,217,11.0,11.0,86,0.00,,,0.00,Wunderground v.1.15,2013-01-13 15:20:00,
2013-01-13 10:25:00,62.2,58.0,29.89,SW,215,11.0,11.0,86,0.00,,,0.00,Wunderground v.1.15,2013-01-13 15:25:00,
2013-01-13 10:35:00,62.1,57.9,29.89,SSW,205,10.0,10.0,86,0.00,,,0.00,Wunderground v.1.15,2013-01-13 15:35:00,
2013-01-13 10:45:00,62.0,58.1,29.89,SSW,204,6.0,9.0,87,0.00,,,0.00,Wunderground v.1.15,2013-01-13 15:45:00,
2013-01-13 10:55:00,62.0,58.1,29.89,South,171,9.0,9.0,87,0.00,,,0.00,Wunderground v.1.15,2013-01-13 15:55:00,
2013-01-13 11:00:00,62.0,58.1,29.88,SE,146,10.0,11.0,87,0.00,,,0.00,Wunderground v.1.15,2013-01-13 16:00:00,
2013-01-13 11:10:00,62.3,58.4,29.88,South,180,8.0,8.0,87,0.00,,,0.00,Wunderground v.1.15,2013-01-13 16:10:00,
2013-01-13 11:15:00,62.7,58.5,29.88,SSW,198,8.0,8.0,86,0.00,,,0.00,Wunderground v.1.15,2013-01-13 16:15:00,
2013-01-13 11:20:00,63.1,58.8,29.88,South,186,9.0,12.0,86,0.00,,,0.00,Wunderground v.1.15,2013-01-13 16:20:00,
2013-01-13 11:25:00,63.3,58.7,29.89,SSW,196,10.0,12.0,85,0.00,,,0.00,Wunderground v.1.15,2013-01-13 16:25:00,
2013-01-13 11:35:00,63.4,58.8,29.89,SW,225,10.0,10.0,85,0.00,,,0.00,Wunderground v.1.15,2013-01-13 16:35:00,
2013-01-13 11:45:00,63.5,58.6,29.89,SW,228,9.0,9.0,84,0.00,,,0.00,Wunderground v.1.15,2013-01-13 16:45:00,
2013-01-13 11:50:00,63.6,58.7,29.89,WSW,246,9.0,9.0,84,0.00,,,0.00,Wunderground v.1.15,2013-01-13 16:50:00,
2013-01-13 11:55:00,63.6,58.3,29.89,SSW,193,8.0,8.0,83,0.00,,,0.00,Wunderground v.1.15,2013-01-13 16:55:00,
2013-01-13 12:00:00,63.5,58.6,29.89,SSW,200,9.0,16.0,84,0.00,,,0.00,Wunderground v.1.15,2013-01-13 17:00:00,
2013-01-13 12:10:00,63.3,58.4,29.88,SSW,205,8.0,9.0,84,0.00,,,0.00,Wunderground v.1.15,2013-01-13 17:10:00,
2013-01-13 12:20:00,63.3,58.4,29.88,SW,228,7.0,7.0,84,0.00,,,0.00,Wunderground v.1.15,2013-01-13 17:20:00,
2013-01-13 12:25:00,63.4,58.8,29.87,SSW,193,7.0,7.0,85,0.00,,,0.00,Wunderground v.1.15,2013-01-13 17:25:00,
2013-01-13 12:35:00,64.2,59.3,29.85,ESE,114,8.0,10.0,84,0.00,,,0.00,Wunderground v.1.15,2013-01-13 17:35:00,
2013-01-13 12:40:00,64.4,59.1,29.84,SSE,155,8.0,8.0,83,0.00,,,0.00,Wunderground v.1.15,2013-01-13 17:40:00,
2013-01-13 12:45:00,64.3,58.7,29.81,South,187,9.0,9.0,82,0.00,,,0.00,Wunderground v.1.15,2013-01-13 17:45:00,
2013-01-13 12:50:00,64.3,58.7,29.80,South,181,8.0,8.0,82,0.00,,,0.00,Wunderground v.1.15,2013-01-13 17:50:00,
2013-01-13 12:55:00,64.3,58.7,29.81,South,182,8.0,8.0,82,0.00,,,0.00,Wunderground v.1.15,2013-01-13 17:55:00,
2013-01-13 13:05:00,64.3,58.3,29.82,South,177,10.0,11.0,81,0.00,,,0.00,Wunderground v.1.15,2013-01-13 18:05:00,
2013-01-13 13:10:00,64.2,58.2,29.82,South,177,10.0,13.0,81,0.00,,,0.00,Wunderground v.1.15,2013-01-13 18:10:00,
2013-01-13 13:15:00,64.2,58.6,29.82,SSW,204,9.0,13.0,82,0.00,,,0.00,Wunderground v.1.15,2013-01-13 18:15:00,
2013-01-13 13:20:00,64.2,58.2,29.82,SSW,193,9.0,14.0,81,0.00,,,0.00,Wunderground v.1.15,2013-01-13 18:20:00,
2013-01-13 13:25:00,64.3,58.3,29.82,SW,221,10.0,14.0,81,0.00,,,0.00,Wunderground v.1.15,2013-01-13 18:25:00,
2013-01-13 13:30:00,64.3,58.3,29.82,SSW,200,9.0,9.0,81,0.00,,,0.00,Wunderground v.1.15,2013-01-13 18:30:00,
2013-01-13 13:40:00,64.4,58.4,29.82,SW,218,9.0,9.0,81,0.00,,,0.00,Wunderground v.1.15,2013-01-13 18:40:00,
2013-01-13 13:45:00,64.5,58.5,29.82,SSW,197,8.0,9.0,81,0.00,,,0.00,Wunderground v.1.15,2013-01-13 18:45:00,
2013-01-13 13:50:00,64.5,58.5,29.82,SSW,200,7.0,7.0,81,0.00,,,0.00,Wunderground v.1.15,2013-01-13 18:50:00,
2013-01-13 13:55:00,64.4,58.1,29.82,SSW,212,6.0,7.0,80,0.00,,,0.00,Wunderground v.1.15,2013-01-13 18:55:00,
2013-01-13 14:00:00,64.4,58.4,29.83,SSW,211,6.0,6.0,81,0.00,,,0.00,Wunderground v.1.15,2013-01-13 19:00:00,
2013-01-13 14:10:00,64.3,58.7,29.83,South,184,4.0,4.0,82,0.00,,,0.00,Wunderground v.1.15,2013-01-13 19:10:00,
2013-01-13 14:20:00,64.3,58.0,29.84,SW,215,6.0,7.0,80,0.00,,,0.00,Wunderground v.1.15,2013-01-13 19:20:00,
2013-01-13 14:25:00,64.3,58.0,29.84,SSW,205,6.0,8.0,80,0.00,,,0.00,Wunderground v.1.15,2013-01-13 19:25:00,
2013-01-13 14:30:00,64.2,57.9,29.84,SSW,196,7.0,7.0,80,0.00,,,0.00,Wunderground v.1.15,2013-01-13 19:30:00,
2013-01-13 14:40:00,64.0,57.7,29.85,SSW,211,6.0,6.0,80,0.00,,,0.00,Wunderground v.1.15,2013-01-13 19:40:00,
2013-01-13 14:45:00,64.1,57.8,29.85,SW,224,5.0,6.0,80,0.00,,,0.00,Wunderground v.1.15,2013-01-13 19:45:00,
2013-01-13 14:50:00,64.3,58.0,29.86,SW,222,5.0,5.0,80,0.00,,,0.00,Wunderground v.1.15,2013-01-13 19:50:00,
2013-01-13 15:00:00,64.7,58.0,29.87,SW,226,7.0,7.0,79,0.00,,,0.00,Wunderground v.1.15,2013-01-13 20:00:00,
2013-01-13 15:10:00,65.0,58.3,29.87,SW,218,7.0,7.0,79,0.00,,,0.00,Wunderground v.1.15,2013-01-13 20:10:00,
2013-01-13 15:15:00,65.1,58.1,29.87,SW,217,7.0,7.0,78,0.00,,,0.00,Wunderground v.1.15,2013-01-13 20:15:00,
2013-01-13 15:20:00,65.2,58.2,29.86,SW,214,7.0,7.0,78,0.00,,,0.00,Wunderground v.1.15,2013-01-13 20:20:00,
2013-01-13 15:25:00,65.1,58.4,29.86,SSW,210,7.0,8.0,79,0.00,,,0.00,Wunderground v.1.15,2013-01-13 20:25:00,
2013-01-13 15:35:00,64.5,58.2,29.86,SSW,208,6.0,7.0,80,0.00,,,0.00,Wunderground v.1.15,2013-01-13 20:35:00,
2013-01-13 15:40:00,64.1,57.8,29.86,SSW,207,6.0,7.0,80,0.00,,,0.00,Wunderground v.1.15,2013-01-13 20:40:00,
2013-01-13 15:50:00,63.7,57.8,29.86,SW,219,6.0,7.0,81,0.00,,,0.00,Wunderground v.1.15,2013-01-13 20:50:00,
2013-01-13 15:55:00,63.6,57.7,29.86,SW,218,6.0,7.0,81,0.00,,,0.00,Wunderground v.1.15,2013-01-13 20:55:00,
2013-01-13 16:00:00,63.5,57.9,29.86,South,181,5.0,6.0,82,0.00,,,0.00,Wunderground v.1.15,2013-01-13 21:00:00,
2013-01-13 16:10:00,63.4,57.5,29.86,South,176,7.0,7.0,81,0.00,,,0.00,Wunderground v.1.15,2013-01-13 21:10:00,
2013-01-13 16:15:00,63.3,57.4,29.86,SW,219,6.0,7.0,81,0.00,,,0.00,Wunderground v.1.15,2013-01-13 21:15:00,
2013-01-13 16:25:00,63.2,57.3,29.86,SSW,205,5.0,7.0,81,0.00,,,0.00,Wunderground v.1.15,2013-01-13 21:25:00,
2013-01-13 16:31:00,63.0,57.4,29.86,SSW,200,5.0,5.0,82,0.00,,,0.00,Wunderground v.1.15,2013-01-13 21:31:00,
2013-01-13 16:40:00,62.8,57.2,29.86,SSW,196,5.0,5.0,82,0.00,,,0.00,Wunderground v.1.15,2013-01-13 21:40:00,
2013-01-13 16:45:00,62.7,57.1,29.86,SW,215,4.0,7.0,82,0.00,,,0.00,Wunderground v.1.15,2013-01-13 21:45:00,
2013-01-13 16:50:00,62.6,57.0,29.86,SW,221,4.0,7.0,82,0.00,,,0.00,Wunderground v.1.15,2013-01-13 21:50:00,
2013-01-13 17:00:00,62.6,56.7,29.87,SSW,207,5.0,5.0,81,0.00,,,0.00,Wunderground v.1.15,2013-01-13 22:00:00,
2013-01-13 17:10:00,62.4,56.8,29.88,SSW,208,5.0,6.0,82,0.00,,,0.00,Wunderground v.1.15,2013-01-13 22:10:00,
2013-01-13 17:15:00,62.4,56.8,29.88,SSW,211,5.0,6.0,82,0.00,,,0.00,Wunderground v.1.15,2013-01-13 22:15:00,
2013-01-13 17:20:00,62.4,56.8,29.88,SSW,198,5.0,5.0,82,0.00,,,0.00,Wunderground v.1.15,2013-01-13 22:20:00,
2013-01-13 17:25:00,62.2,56.6,29.89,SSW,207,6.0,10.0,82,0.00,,,0.00,Wunderground v.1.15,2013-01-13 22:25:00,
2013-01-13 17:35:00,61.9,56.7,29.89,SW,215,6.0,7.0,83,0.00,,,0.00,Wunderground v.1.15,2013-01-13 22:35:00,
2013-01-13 17:40:00,61.6,56.7,29.89,SW,221,5.0,5.0,84,0.00,,,0.00,Wunderground v.1.15,2013-01-13 22:40:00,
2013-01-13 17:45:00,61.2,56.7,29.89,SW,225,5.0,5.0,85,0.00,,,0.00,Wunderground v.1.15,2013-01-13 22:45:00,
2013-01-13 17:50:00,60.8,56.6,29.89,SW,219,4.0,4.0,86,0.00,,,0.01,Wunderground v.1.15,2013-01-13 22:50:00,
2013-01-13 17:55:00,60.3,56.7,29.89,SSW,200,4.0,5.0,88,0.00,,,0.01,Wunderground v.1.15,2013-01-13 22:55:00,
2013-01-13 18:00:00,60.0,56.4,29.89,SW,219,4.0,4.0,88,0.06,,,0.02,Wunderground v.1.15,2013-01-13 23:00:00,
2013-01-13 18:10:00,59.4,56.5,29.89,SSW,208,4.0,4.0,90,0.05,,,0.02,Wunderground v.1.15,2013-01-13 23:10:00,
2013-01-13 18:15:00,59.2,56.6,29.89,SSW,205,4.0,4.0,91,0.00,,,0.02,Wunderground v.1.15,2013-01-13 23:15:00,
2013-01-13 18:20:00,59.1,56.5,29.89,SW,214,3.0,3.0,91,0.00,,,0.03,Wunderground v.1.15,2013-01-13 23:20:00,
2013-01-13 18:25:00,58.8,56.2,29.89,SSW,204,3.0,3.0,91,0.00,,,0.03,Wunderground v.1.15,2013-01-13 23:25:00,
2013-01-13 18:30:00,58.6,56.3,29.89,SSW,194,4.0,4.0,92,0.00,,,0.03,Wunderground v.1.15,2013-01-13 23:30:00,
2013-01-13 18:35:00,58.5,56.2,29.90,SW,228,4.0,4.0,92,0.04,,,0.04,Wunderground v.1.15,2013-01-13 23:35:00,
2013-01-13 18:45:00,58.1,56.1,29.90,SW,217,3.0,3.0,93,0.04,,,0.04,Wunderground v.1.15,2013-01-13 23:45:00,
2013-01-13 18:50:00,58.0,56.3,29.90,SW,215,4.0,4.0,94,0.04,,,0.05,Wunderground v.1.15,2013-01-13 23:50:00,
2013-01-13 18:55:00,57.9,56.2,29.90,SSW,208,4.0,4.0,94,0.04,,,0.05,Wunderground v.1.15,2013-01-13 23:55:00,
2013-01-13 19:00:00,57.8,56.1,29.90,SSW,199,4.0,4.0,94,0.04,,,0.05,Wunderground v.1.15,2013-01-14 00:00:00,
2013-01-13 19:10:00,57.7,56.0,29.89,SSW,198,4.0,4.0,94,0.04,,,0.06,Wunderground v.1.15,2013-01-14 00:10:00,
2013-01-13 19:15:00,57.6,56.2,29.89,SSE,165,4.0,4.0,95,0.04,,,0.06,Wunderground v.1.15,2013-01-14 00:15:00,
2013-01-13 19:20:00,57.5,56.1,29.88,SSW,194,3.0,3.0,95,0.04,,,0.06,Wunderground v.1.15,2013-01-14 00:20:00,
2013-01-13 19:25:00,57.5,56.1,29.87,SSW,210,4.0,5.0,95,0.00,,,0.07,Wunderground v.1.15,2013-01-14 00:25:00,
2013-01-13 19:35:00,57.4,56.0,29.85,SSW,194,4.0,5.0,95,0.00,,,0.07,Wunderground v.1.15,2013-01-14 00:35:00,
2013-01-13 19:40:00,57.4,56.0,29.85,South,177,3.0,3.0,95,0.00,,,0.07,Wunderground v.1.15,2013-01-14 00:40:00,
2013-01-13 19:55:00,57.5,56.1,29.86,SSW,207,3.0,4.0,95,0.00,,,0.08,Wunderground v.1.15,2013-01-14 00:55:00,
2013-01-13 20:00:00,57.4,56.0,29.86,SSW,197,3.0,3.0,95,0.00,,,0.08,Wunderground v.1.15,2013-01-14 01:00:00,
2013-01-13 20:10:00,57.2,55.8,29.86,SSW,198,2.0,2.0,95,0.00,,,0.08,Wunderground v.1.15,2013-01-14 01:10:00,
2013-01-13 20:20:00,57.1,55.7,29.84,SSE,158,1.0,1.0,95,0.00,,,0.09,Wunderground v.1.15,2013-01-14 01:20:00,
2013-01-13 20:25:00,57.2,56.1,29.85,SSW,207,2.0,6.0,96,0.00,,,0.09,Wunderground v.1.15,2013-01-14 01:25:00,
2013-01-13 20:30:00,57.1,56.0,29.85,SW,236,2.0,2.0,96,0.05,,,0.10,Wunderground v.1.15,2013-01-14 01:30:00,
2013-01-13 20:35:00,57.0,55.9,29.86,South,188,3.0,3.0,96,0.05,,,0.10,Wunderground v.1.15,2013-01-14 01:35:00,
2013-01-13 20:45:00,56.9,55.8,29.83,SE,132,2.0,3.0,96,0.06,,,0.11,Wunderground v.1.15,2013-01-14 01:45:00,
2013-01-13 20:50:00,56.9,55.8,29.82,South,180,2.0,3.0,96,0.06,,,0.11,Wunderground v.1.15,2013-01-14 01:50:00,
2013-01-13 21:00:00,56.9,55.8,29.84,SW,214,3.0,3.0,96,0.05,,,0.12,Wunderground v.1.15,2013-01-14 02:00:00,
2013-01-13 21:10:00,56.7,55.6,29.83,SSW,204,3.0,4.0,96,0.00,,,0.12,Wunderground v.1.15,2013-01-14 02:10:00,
2013-01-13 21:20:00,56.7,55.6,29.82,South,190,4.0,4.0,96,0.00,,,0.12,Wunderground v.1.15,2013-01-14 02:20:00,
2013-01-13 21:25:00,56.7,55.6,29.81,SE,139,4.0,4.0,96,0.00,,,0.12,Wunderground v.1.15,2013-01-14 02:25:00,
2013-01-13 21:30:00,56.8,55.7,29.79,SSW,201,3.0,6.0,96,0.00,,,0.12,Wunderground v.1.15,2013-01-14 02:30:00,
2013-01-13 21:40:00,56.9,55.8,29.81,SSW,194,6.0,6.0,96,0.00,,,0.12,Wunderground v.1.15,2013-01-14 02:40:00,
2013-01-13 21:50:00,57.0,55.9,29.82,SW,225,4.0,4.0,96,0.00,,,0.12,Wunderground v.1.15,2013-01-14 02:50:00,
2013-01-13 21:55:00,57.0,55.9,29.82,SSW,209,4.0,4.0,96,0.00,,,0.12,Wunderground v.1.15,2013-01-14 02:55:00,
2013-01-13 22:00:00,57.0,55.9,29.81,SSW,196,4.0,4.0,96,0.00,,,0.12,Wunderground v.1.15,2013-01-14 03:00:00,
2013-01-13 22:10:00,57.0,55.9,29.83,SW,217,3.0,3.0,96,0.00,,,0.12,Wunderground v.1.15,2013-01-14 03:10:00,
2013-01-13 22:15:00,57.0,55.9,29.83,SW,225,3.0,3.0,96,0.00,,,0.12,Wunderground v.1.15,2013-01-14 03:15:00,
2013-01-13 22:20:00,57.1,56.0,29.85,WSW,250,3.0,3.0,96,0.00,,,0.12,Wunderground v.1.15,2013-01-14 03:20:00,
2013-01-13 22:25:00,55.3,51.8,29.88,WSW,238,5.0,6.0,88,0.00,,,0.12,Wunderground v.1.15,2013-01-14 03:25:00,
2013-01-13 22:30:00,50.2,45.6,29.89,West,277,7.0,7.0,84,0.33,,,0.14,Wunderground v.1.15,2013-01-14 03:30:00,
2013-01-13 22:35:00,47.1,43.7,29.90,SE,143,6.0,7.0,88,0.17,,,0.15,Wunderground v.1.15,2013-01-14 03:35:00,
2013-01-13 22:45:00,45.0,42.8,29.89,ENE,72,3.0,4.0,92,0.05,,,0.16,Wunderground v.1.15,2013-01-14 03:45:00,
2013-01-13 22:50:00,44.7,42.8,29.90,SSW,210,2.0,3.0,93,0.05,,,0.16,Wunderground v.1.15,2013-01-14 03:50:00,
2013-01-13 22:55:00,44.4,42.8,29.91,WSW,255,3.0,5.0,94,0.05,,,0.16,Wunderground v.1.15,2013-01-14 03:55:00,
2013-01-13 23:00:00,44.2,42.6,29.92,South,172,4.0,4.0,94,0.00,,,0.16,Wunderground v.1.15,2013-01-14 04:00:00,
2013-01-13 23:10:00,43.7,42.1,29.93,NNW,343,4.0,4.0,94,0.00,,,0.16,Wunderground v.1.15,2013-01-14 04:10:00,
2013-01-13 23:15:00,43.4,41.8,29.94,SW,223,5.0,5.0,94,0.00,,,0.16,Wunderground v.1.15,2013-01-14 04:15:00,
2013-01-13 23:20:00,43.2,41.9,29.95,SW,217,4.0,4.0,95,0.00,,,0.17,Wunderground v.1.15,2013-01-14 04:20:00,
2013-01-13 23:25:00,43.1,41.8,29.96,SW,221,3.0,4.0,95,0.00,,,0.17,Wunderground v.1.15,2013-01-14 04:25:00,
2013-01-13 23:30:00,42.9,41.6,29.98,WSW,238,3.0,3.0,95,0.00,,,0.17,Wunderground v.1.15,2013-01-14 04:30:00,
2013-01-13 23:35:00,42.6,41.3,29.98,NNE,16,3.0,12.0,95,0.00,,,0.18,Wunderground v.1.15,2013-01-14 04:35:00,
2013-01-13 23:50:00,41.7,40.4,30.00,SSW,204,4.0,4.0,95,0.00,,,0.18,Wunderground v.1.15,2013-01-14 04:50:00,
2013-01-13 23:55:00,41.5,40.2,30.00,SSW,204,5.0,6.0,95,0.00,,,0.18,Wunderground v.1.15,2013-01-14 04:55:00,